SCP
1 2 3 4 4 4 3 3 3 4 5 5 5 4 3 3 3 3 2 2 2 2 2 2 2 2 3 3 3 2 2 2 1 1 1 1 0 0 0 0 0 0 0
2 2 3 4 4 4 3 3 3 4 5 5 5 4 3 3 2 2 2 2 1 1 2 2 2 2 2 2 2 2 2 1 1 1 1 0 0 0 0 0 0 0 0
2 2 2 3 3 3 3 3 3 3 4 4 4 3 3 2 2 2 1 1 1 1 1 1 1 1 1 2 2 1 1 1 1 1 1 0 0 0 0 0 0 0 0
2 2 1 1 1 2 2 2 2 2 2 2 2 2 2 1 1 1 1 0 0 1 1 1 1 1 1 1 1 1 1 0 0 0 0 0 0 0 0 0 0 0 0
1 1 1 1 1 1 1 1 1 1 1 1 1 1 1 1 0 0 0 0 0 0 0 1 1 1 1 1 1 0 0 0 0 0 0 0 0 0 0 0 0 0 0
1 0 0 0 0 0 0 0 0 0 0 0 0 0 0 0 0 0 0 0 0 0 0 0 1 1 1 1 0 0 0 0 0 0 0 0 0 0 0 0 0 0 0
0 0 0 0 0 0 0 0 0 0 0 0 0 0 0 0 0 0 0 0 0 0 0 0 0 0 0 0 0 0 0 0 0 0 0 0 0 0 0 0 0 0 0
0 0 0 0 0 0 0 0 0 0 0 0 0 0 0 0 0 0 0 0 0 0 0 0 0 0 0 0 0 0 0 0 0 0 0 0 0 0 0 0 0 0 0
0 0 0 0 0 0 0 0 0 0 0 0 0 0 0 0 0 0 0 0 0 0 0 0 0 0 0 0 0 0 0 0 0 0 0 0 0 0 0 0 0 0 0
0 0 0 0 0 0 0 0 0 0 0 0 0 0 0 0 0 0 0 0 0 0 0 0 0 0 0 0 0 0 0 0 0 0 0 0 0 0 0 0 0 0 0
0 0 0 0 0 0 0 0 0 0 0 0 0 0 0 0 0 0 0 0 0 0 0 0 0 0 0 0 0 0 0 0 0 0 0 0 0 0 0 0 0 0 0
0 0 0 0 0 0 0 0 0 0 0 0 0 0 0 0 0 0 0 0 0 0 0 0 0 0 0 0 0 0 0 0 0 0 0 0 0 0 0 0 0 0 0
0 0 0 0 0 0 0 0 0 0 0 0 0 0 0 0 0 0 0 0 0 0 0 0 0 0 0 0 0 0 0 0 0 0 0 0 0 0 0 0 0 0 0
0 0 0 0 0 0 0 0 0 0 0 0 0 0 0 0 0 0 0 0 0 0 0 0 0 0 0 0 0 0 0 0 0 0 0 0 0 0 0 0 0 0 0
0 0 0 0 0 0 0 0 0 0 0 0 0 0 0 0 0 0 0 0 0 0 0 0 0 0 0 0 0 0 0 0 0 0 0 0 0 0 0 0 0 -0 -0
0 0 0 0 0 0 0 0 0 0 0 0 0 0 0 0 0 0 0 0 0 0 0 0 0 0 0 0 0 0 0 0 0 0 0 0 0 0 -0 -0 -0 -0 -0
0 0 0 0 0 0 0 0 0 0 0 0 0 0 0 0 0 0 0 0 0 0 0 0 0 0 0 0 0 0 0 0 0 0 0 0 -0 -0 -0 -0 0 0 0
0 0 0 0 0 0 0 0 0 0 0 0 0 0 0 0 0 0 0 0 0 0 0 0 0 0 0 0 0 0 0 0 0 0 0 0 -0 -0 -0 -0 0 0 0
0 0 0 0 0 0 0 0 0 0 0 0 0 0 0 0 0 0 0 0 0 0 0 0 0 0 0 0 0 0 0 0 0 0 0 0 -0 -0 -0 0 0 0 0
0 0 0 0 0 0 0 0 0 0 0 0 0 0 0 0 0 0 0 0 0 0 0 0 0 0 0 0 0 0 0 0 0 0 0 0 0 -0 -0 0 0 0 0
0 0 0 0 0 0 0 0 -0 0 0 0 0 0 0 0 0 0 0 0 0 0 0 0 0 0 0 0 0 0 0 0 0 0 0 0 0 0 0 0 0 0 0
0 0 0 0 0 0 0 -0 -0 0 0 0 0 0 0 0 0 0 0 0 0 0 0 0 0 0 0 0 0 0 0 0 0 0 0 0 0 -0 -0 0 0 0 0
0 0 0 0 0 0 -0 -0 -0 0 0 0 0 0 0 0 0 0 0 0 0 0 0 0 0 0 0 0 0 0 0 0 0 0 0 0 0 -0 -0 0 0 0 0
0 0 0 0 0 0 -0 -0 0 0 0 0 0 0 0 0 0 0 0 0 0 0 0 0 0 0 0 0 0 0 0 0 0 0 0 0 0 -0 0 0 0 0 0
0 0 0 0 0 -0 -0 -0 0 0 0 0 0 0 0 0 0 0 0 0 0 0 0 0 0 0 0 0 0 0 0 0 0 0 0 0 0 0 0 0 0 0 0
0 0 0 0 0 -0 -0 -0 0 0 0 0 0 0 0 0 0 0 0 0 0 0 0 0 0 0 0 0 0 0 0 0 0 0 0 0 0 0 0 0 0 0 0
Wind_Speed
16 16 15 14 14 16 14 9 4 3 2 2 1 1 0 1 2 2 5 5 5 6 5 5 6 5 4 5 6 5 6 5 5 7 7 7 7 7 6 7 8 9 9
16 17 18 17 16 14 10 8 7 6 6 5 3 3 3 4 5 6 8 8 7 6 5 5 5 5 5 6 5 6 5 7 7 7 8 10 8 7 9 6 6 7 6
16 17 17 16 16 14 12 10 9 8 8 7 5 4 4 4 5 6 5 6 6 4 4 4 4 4 5 5 7 7 7 7 7 6 8 11 13 8 6 8 8 7 7
17 15 15 15 15 15 14 14 12 11 10 10 9 9 7 5 4 3 1 4 5 6 6 6 5 4 4 6 8 8 8 9 10 8 7 8 10 12 12 7 6 8 9
16 15 15 14 14 14 14 13 13 12 11 11 11 10 8 6 5 5 6 6 7 8 8 7 5 5 5 7 8 8 8 8 10 11 9 10 10 11 12 14 8 7 6
17 16 15 14 14 13 13 12 12 11 10 11 10 10 9 8 8 7 7 7 6 7 9 8 7 7 6 7 8 8 10 9 10 9 8 9 10 10 10 13 12 10 9
16 16 15 14 13 12 11 10 10 8 8 8 7 7 7 7 8 8 8 8 8 7 7 9 7 7 7 7 7 8 8 8 8 7 6 6 7 8 8 10 11 12 11
16 16 14 12 11 10 9 8 8 7 7 6 5 5 5 6 7 8 9 9 8 8 9 9 9 9 8 9 7 8 8 7 7 9 8 6 7 6 6 6 8 10 8
15 14 13 11 10 9 7 6 6 5 6 6 5 5 6 7 8 8 8 8 8 9 10 9 8 7 7 7 7 6 7 7 7 7 8 7 6 6 6 6 6 7 9
14 13 11 9 7 6 6 5 5 5 5 6 7 8 8 8 8 8 8 8 8 8 9 9 7 7 7 7 7 7 6 7 6 6 7 7 5 5 5 6 6 7 9
13 11 9 8 6 6 6 6 7 7 7 8 7 7 8 8 8 7 8 8 8 8 9 9 8 8 8 7 6 7 8 8 7 8 8 9 8 6 5 5 6 7 7
11 10 8 7 7 7 6 7 7 7 8 8 7 7 7 7 8 8 8 8 7 8 8 8 8 8 8 7 8 10 10 11 11 11 10 10 9 7 6 6 8 7 7
10 10 8 6 6 5 6 7 7 7 8 8 7 6 7 7 8 8 8 7 7 7 8 8 8 8 8 8 9 10 11 12 12 12 11 11 9 8 7 8 8 7 8
7 5 6 7 6 6 8 9 8 8 8 8 8 7 7 7 7 7 7 6 6 6 6 7 8 9 9 11 12 13 13 13 13 12 11 10 7 7 8 8 8 8 9
6 7 7 6 6 8 8 9 9 8 8 8 8 7 7 7 7 6 5 5 6 8 7 6 6 7 6 9 13 14 15 15 14 12 9 8 11 13 10 10 9 10 9
8 8 6 6 7 8 9 9 8 7 7 8 8 8 6 7 6 5 5 6 6 7 6 6 6 6 5 7 14 17 16 15 13 11 8 8 9 14 18 20 21 20 15
9 7 7 7 7 7 7 7 7 7 6 7 8 7 6 6 6 7 7 7 6 7 6 5 4 5 3 5 11 21 17 14 11 10 8 8 10 13 12 18 23 20 21
9 8 7 6 6 5 5 5 7 7 6 6 6 6 6 7 6 6 7 7 6 6 5 5 4 5 6 8 12 21 15 13 11 10 7 7 10 11 15 16 16 15 13
9 7 5 4 4 3 4 6 7 5 6 7 6 7 7 8 8 7 7 6 6 6 6 5 5 6 7 11 14 20 14 11 14 12 8 8 10 16 19 16 15 14 7
7 5 3 3 3 3 4 7 6 5 6 7 6 5 5 6 8 5 5 5 5 6 7 6 5 7 8 11 14 19 12 12 12 12 9 10 13 18 17 13 12 11 5
6 3 3 3 2 2 4 6 6 6 6 7 7 6 5 5 5 4 4 4 4 6 7 7 6 7 9 11 15 19 13 12 13 11 9 9 17 18 14 12 10 9 3
5 3 2 2 1 1 4 6 6 6 7 7 7 7 6 6 5 4 4 3 3 5 6 6 8 8 8 11 14 18 18 16 13 10 9 10 17 16 11 10 12 10 5
4 2 3 2 1 1 3 6 6 6 7 7 7 6 7 4 3 4 4 4 3 6 8 9 9 9 9 10 15 16 17 20 13 10 16 17 16 11 7 12 14 8 4
4 3 2 1 1 3 4 4 4 6 7 7 7 7 5 5 6 4 4 5 7 9 9 10 10 9 9 10 11 11 11 14 12 11 13 13 11 8 6 8 9 7 6
4 3 3 3 3 3 3 5 6 5 6 6 6 10 7 8 6 6 8 9 10 9 8 9 10 9 9 12 17 13 10 11 12 12 6 6 7 7 5 5 7 7 6
4 3 2 3 4 4 5 5 5 6 7 7 7 8 6 6 7 7 8 13 10 9 7 6 8 8 8 13 16 18 17 16 18 10 6 7 7 7 6 5 5 6 6
Wind_Direction
67 67 78 90 97 111 131 156 141 84 72 62 52 95 64 36 39 49 58 44 26 19 6 344 342 339 344 343 326 322 315 302 289 288 284 271 268 277 275 268 265 264 266
70 66 68 72 80 92 107 107 86 46 32 33 27 20 18 14 27 33 31 17 7 355 349 5 331 346 338 318 327 336 315 304 304 300 298 297 290 279 284 287 290 300 315
76 70 64 65 72 78 82 87 83 59 38 26 27 29 25 20 23 22 24 350 313 321 339 322 324 339 327 324 339 313 313 315 308 295 294 294 291 291 288 289 288 288 285
80 77 74 71 72 75 77 77 73 61 48 44 40 40 34 25 24 6 11 319 328 349 338 326 328 337 333 323 318 337 333 315 306 301 294 292 305 308 302 282 278 283 281
96 93 90 87 84 81 77 71 66 58 50 47 44 40 34 20 10 356 353 350 346 339 326 322 345 0 337 327 332 326 324 315 305 304 306 308 306 299 291 293 295 289 286
110 105 100 94 87 83 79 72 64 57 50 43 38 32 21 2 348 343 341 345 334 319 319 338 360 345 334 333 330 325 316 313 313 314 311 308 307 307 306 304 308 306 310
119 111 102 93 86 80 77 74 66 58 51 45 34 21 8 337 332 349 345 334 318 315 333 346 339 335 335 330 328 323 315 311 311 312 307 305 303 304 306 305 305 306 306
114 108 103 99 93 83 74 68 61 50 36 30 22 358 358 346 342 347 331 317 319 330 339 342 341 337 332 323 318 306 297 297 298 295 293 292 291 291 288 286 293 294 290
115 112 107 100 95 90 74 57 48 35 26 6 4 353 4 351 339 333 328 334 337 326 337 332 324 322 318 312 307 296 295 294 291 293 292 286 280 278 277 275 274 281 288
120 113 109 101 94 96 96 63 45 22 13 360 1 355 355 350 345 340 344 337 331 327 318 314 314 314 310 303 302 300 294 295 291 286 282 282 281 282 279 277 274 270 276
130 126 119 112 101 68 49 35 23 11 5 359 3 5 360 354 346 341 339 333 326 322 319 317 311 308 303 303 305 304 305 309 304 297 292 289 283 276 277 284 279 270 267
128 118 103 87 67 46 27 21 6 1 360 357 6 12 356 349 339 335 329 325 325 323 320 314 314 320 330 341 354 352 346 332 320 312 304 299 293 277 278 278 276 270 263
96 91 80 66 50 22 13 5 358 5 1 357 358 359 345 336 326 322 320 322 324 324 327 334 343 346 350 7 5 349 336 323 312 306 300 297 292 281 279 279 277 271 269
105 105 94 65 28 12 14 359 358 8 357 346 340 336 330 324 317 320 323 330 338 336 343 348 357 358 7 16 358 345 330 319 311 301 292 289 289 290 294 295 292 290 284
144 109 77 40 12 16 11 0 4 3 345 331 333 333 327 324 327 333 337 345 343 338 339 350 1 359 9 15 357 343 330 319 311 310 315 326 325 320 316 308 301 295 285
104 83 57 31 30 18 6 1 354 341 334 330 326 322 332 333 337 336 345 346 338 334 337 348 359 358 11 4 352 350 330 315 312 321 327 328 329 324 316 310 306 298 287
81 62 46 42 36 25 13 349 329 321 316 309 309 319 336 335 346 344 343 338 331 330 329 340 356 355 40 5 349 349 331 316 319 323 324 332 329 323 316 311 306 298 286
65 56 39 28 35 28 2 322 306 303 313 329 346 350 350 347 342 331 334 330 327 325 326 332 350 354 23 12 356 348 330 322 323 321 326 336 328 324 323 313 307 304 293
71 59 33 20 46 18 340 310 307 337 6 11 3 359 352 336 321 329 333 329 329 328 330 336 351 1 13 18 4 354 331 330 329 321 326 342 331 327 326 320 316 317 321
73 48 10 34 58 10 331 320 327 3 360 352 344 330 321 311 310 330 332 331 326 332 332 338 6 19 14 17 10 353 336 333 327 319 329 341 336 330 329 326 322 324 356
81 25 24 63 60 346 322 320 326 346 337 329 316 302 298 294 305 325 312 318 338 342 339 357 10 24 18 9 4 348 339 335 325 321 331 332 331 330 331 331 329 335 18
85 62 87 111 177 267 299 304 321 330 322 312 304 302 295 294 308 301 301 329 5 357 356 2 0 5 8 7 353 339 333 330 323 323 329 327 328 333 350 349 345 359 49
92 113 125 132 175 270 291 311 327 328 320 310 307 304 302 296 312 315 333 349 14 13 4 4 356 357 359 355 349 339 332 332 332 330 330 332 335 347 8 354 355 10 49
122 142 124 76 29 330 309 311 339 339 336 339 342 326 324 8 345 333 1 12 26 25 16 6 354 358 359 356 349 342 338 338 339 332 327 331 342 3 13 3 4 23 46
127 103 54 16 351 323 347 14 7 345 345 340 355 332 356 20 347 15 44 59 65 64 41 16 358 3 1 349 340 343 344 341 335 327 331 352 355 358 14 28 19 24 43
132 107 51 4 348 22 35 29 11 2 360 352 6 341 8 9 360 15 69 77 105 105 84 39 12 14 7 345 347 349 343 339 340 346 357 359 355 356 17 44 40 36 43